Terug naar catalogus

COSMOS 2177

GLONASS

ActiefNavigatieMEO
NORAD 21853·PAYLOAD·🇷🇺 Russia

Gelanceerd Jan 29, 1992 vanaf Baikonur Cosmodrome

Loading…

Volgende Passages (komende 24 uur)

TLE

VersSource: Space-Track

Epoch: Sep 13, 2026, 22:03 UTC

1 21853U 92005A   26256.91928941 -.00000014  00000-0  00000+0 0  9994
2 21853  64.9452  66.9301 0006860 169.7127   7.3111  2.13101183269447

Volg COSMOS 2177 in realtime met AllMySat

Download on the App Store